Hourly Data Report for August 06, 2020

LYTTON RCS
BRITISH COLUMBIA
Current Station Operator: ECCC - MSC

50°13'28.000" N
121°34'55.000" W
225.00 m
1114746
71765
VLY

Download Data

Hourly Data (August 2020)
Hourly Data Report for August 6, 2020
TIME Temp Definition
°C
Dew Point Definition
°C
Rel Hum Definition
%
Wind Dir Definition
10's deg

Wind Spd Definition
km/h
Visibility Definition
km
Stn Press Definition
kPa
Hmdx Definition


Wind Chill Definition


Weather Definition


00:00 22.5 9.1 42 20 23   97.83     LegendNANA
01:00 21.8 9.0 44 20 22   97.84     LegendNANA
02:00 21.2 9.6 47 19 21   97.89     LegendNANA
03:00 21.1 10.1 49 20 30   97.85     LegendNANA
04:00 20.7 9.7 49 21 24   97.83     LegendNANA
05:00 20.2 9.7 51 20 22   97.80     LegendNANA
06:00 20.5 9.6 50 20 23   97.77     LegendNANA
07:00 20.4 10.0 51 19 29   97.80     LegendNANA
08:00 20.2 10.8 55 20 27   97.87     LegendNANA
09:00 20.2 11.1 56 22 18   97.96     LegendNANA
10:00 19.5 11.1 58 22 14   98.11     LegendNANA
11:00 19.0 12.3 65 19 13   98.13     LegendNANA
12:00 20.9 12.1 57 19 22   98.06     LegendNANA
13:00 21.2 11.7 55 18 33   98.02     LegendNANA
14:00 21.0 12.5 58 20 33   98.02     LegendNANA
15:00 21.3 11.8 54 19 27   98.09     LegendNANA
16:00 20.7 9.2 48 18 37   98.14     LegendNANA
17:00 19.9 8.2 47 19 29   98.18     LegendNANA
18:00 19.2 7.6 47 19 30   98.20     LegendNANA
19:00 18.3 7.7 50 20 21   98.34     LegendNANA
20:00 17.4 8.0 54 20 23   98.42     LegendNANA
21:00 16.4 8.4 59 20 22   98.52     LegendNANA
22:00 16.1 8.6 61 21 25   98.57     LegendNANA
23:00 16.2 8.3 60 20 20   98.69     LegendNANA

Notes on Data Quality.

Legend

  • E = Estimated
  • M = Missing
  • NA = Not Available*
  • [empty] = Indicates an unobserved value
Date modified: